Time,TemperatureF,DewpointF,PressureIn,WindDirection,WindDirectionDegrees,WindSpeedMPH,WindSpeedGustMPH,Humidity,HourlyPrecipIn,Conditions,Clouds,dailyrainin,SoftwareType,DateUTC
2013-01-12 00:02:00,23.0,23.0,30.31,SSW,200,1.0,2.0,100,-99.99,,,-99.99,,2013-01-12 08:02:00,
2013-01-12 00:11:00,24.0,24.0,30.31,SW,219,1.0,2.0,100,-99.99,,,-99.99,,2013-01-12 08:11:00,
2013-01-12 00:22:00,24.0,24.0,30.31,South,187,2.0,2.0,100,-99.99,,,-99.99,,2013-01-12 08:22:00,
2013-01-12 00:32:00,24.0,24.0,30.32,SSE,166,1.0,2.0,100,-99.99,,,-99.99,,2013-01-12 08:32:00,
2013-01-12 00:42:00,24.0,24.0,30.32,SE,138,2.0,2.0,100,-99.99,,,-99.99,,2013-01-12 08:42:00,
2013-01-12 00:52:00,23.0,23.0,30.32,SSE,154,0.0,2.0,100,-99.99,,,-99.99,,2013-01-12 08:52:00,
2013-01-12 01:02:00,23.0,23.0,30.32,SSE,154,0.0,2.0,100,-99.99,,,-99.99,,2013-01-12 09:02:00,
2013-01-12 01:12:00,23.0,23.0,30.32,SSW,192,1.0,2.0,100,-99.99,,,-99.99,,2013-01-12 09:12:00,
2013-01-12 01:22:00,23.0,23.0,30.32,West,260,1.0,1.0,100,-99.99,,,-99.99,,2013-01-12 09:22:00,
2013-01-12 01:32:00,23.0,23.0,30.32,North,351,2.0,2.0,100,-99.99,,,-99.99,,2013-01-12 09:32:00,
2013-01-12 01:42:00,24.0,24.0,30.32,North,0,0.0,1.0,100,-99.99,,,-99.99,,2013-01-12 09:42:00,
2013-01-12 01:52:00,24.0,24.0,30.32,North,0,0.0,1.0,100,-99.99,,,-99.99,,2013-01-12 09:52:00,
2013-01-12 02:02:00,23.0,23.0,30.32,SSE,168,0.0,0.0,100,-99.99,,,-99.99,,2013-01-12 10:02:00,
2013-01-12 02:11:00,23.0,23.0,30.32,WSW,240,0.0,0.0,100,-99.99,,,-99.99,,2013-01-12 10:11:00,
2013-01-12 02:22:00,23.0,23.0,30.32,WSW,240,1.0,1.0,100,-99.99,,,-99.99,,2013-01-12 10:22:00,
2013-01-12 02:32:00,23.0,23.0,30.32,SW,231,1.0,1.0,100,-99.99,,,-99.99,,2013-01-12 10:32:00,
2013-01-12 02:42:00,23.0,23.0,30.32,SW,232,1.0,1.0,100,-99.99,,,-99.99,,2013-01-12 10:42:00,
2013-01-12 02:52:00,23.0,23.0,30.32,SW,230,0.0,1.0,100,-99.99,,,-99.99,,2013-01-12 10:52:00,
2013-01-12 03:02:00,23.0,23.0,30.32,ESE,115,1.0,1.0,100,-99.99,,,-99.99,,2013-01-12 11:02:00,
2013-01-12 03:12:00,23.0,23.0,30.32,SE,131,2.0,2.0,100,-99.99,,,-99.99,,2013-01-12 11:12:00,
2013-01-12 03:22:00,22.0,22.0,30.32,SSE,153,1.0,1.0,100,-99.99,,,-99.99,,2013-01-12 11:22:00,
2013-01-12 03:32:00,22.0,22.0,30.32,SSE,160,1.0,1.0,100,-99.99,,,-99.99,,2013-01-12 11:32:00,
2013-01-12 03:42:00,22.0,22.0,30.32,South,181,1.0,1.0,100,-99.99,,,-99.99,,2013-01-12 11:42:00,
2013-01-12 03:52:00,22.0,22.0,30.32,SSE,166,1.0,1.0,106,-99.99,,,-99.99,,2013-01-12 11:52:00,
2013-01-12 04:02:00,21.0,21.0,30.32,SSE,166,1.0,1.0,106,-99.99,,,-99.99,,2013-01-12 12:02:00,
2013-01-12 04:12:00,21.0,21.0,30.32,West,264,1.0,1.0,106,-99.99,,,-99.99,,2013-01-12 12:12:00,
2013-01-12 04:22:00,22.0,22.0,30.32,WNW,290,0.0,1.0,107,-99.99,,,-99.99,,2013-01-12 12:22:00,
2013-01-12 04:32:00,22.0,22.0,30.32,SE,132,1.0,1.0,106,-99.99,,,-99.99,,2013-01-12 12:32:00,
2013-01-12 04:42:00,22.0,22.0,30.32,SE,132,1.0,1.0,106,-99.99,,,-99.99,,2013-01-12 12:42:00,
2013-01-12 04:52:00,22.0,22.0,30.32,SE,137,0.0,1.0,106,-99.99,,,-99.99,,2013-01-12 12:52:00,
2013-01-12 05:02:00,21.0,21.0,30.31,SE,144,1.0,1.0,106,-99.99,,,-99.99,,2013-01-12 13:02:00,
2013-01-12 05:12:00,21.0,21.0,30.31,SE,143,1.0,1.0,100,-99.99,,,-99.99,,2013-01-12 13:12:00,
2013-01-12 05:22:00,21.0,21.0,30.31,South,170,1.0,1.0,106,-99.99,,,-99.99,,2013-01-12 13:22:00,
2013-01-12 05:32:00,21.0,21.0,30.31,WNW,290,1.0,1.0,107,-99.99,,,-99.99,,2013-01-12 13:32:00,
2013-01-12 05:42:00,21.0,21.0,30.31,WNW,290,1.0,1.0,107,-99.99,,,-99.99,,2013-01-12 13:42:00,
2013-01-12 05:52:00,20.0,20.0,30.32,WSW,246,1.0,1.0,107,-99.99,,,-99.99,,2013-01-12 13:52:00,
2013-01-12 06:02:00,20.0,20.0,30.32,WSW,246,1.0,1.0,107,-99.99,,,-99.99,,2013-01-12 14:02:00,
2013-01-12 06:12:00,21.0,21.0,30.32,WSW,246,0.0,0.0,107,-99.99,,,-99.99,,2013-01-12 14:12:00,
2013-01-12 06:22:00,21.0,21.0,30.32,SE,136,1.0,2.0,107,-99.99,,,-99.99,,2013-01-12 14:22:00,
2013-01-12 06:32:00,22.0,22.0,30.32,SSE,167,2.0,2.0,107,-99.99,,,-99.99,,2013-01-12 14:32:00,
2013-01-12 06:43:00,22.0,22.0,30.32,South,185,2.0,2.0,107,-99.99,,,-99.99,,2013-01-12 14:43:00,
2013-01-12 06:53:00,22.0,22.0,30.32,SSW,197,2.0,2.0,106,-99.99,,,-99.99,,2013-01-12 14:53:00,
2013-01-12 07:03:00,22.0,22.0,30.32,SSW,197,2.0,2.0,106,-99.99,,,-99.99,,2013-01-12 15:03:00,
2013-01-12 07:12:00,23.0,23.0,30.32,SSW,192,2.0,2.0,100,-99.99,,,-99.99,,2013-01-12 15:12:00,
2013-01-12 07:22:00,23.0,23.0,30.32,South,185,1.0,1.0,100,-99.99,,,-99.99,,2013-01-12 15:22:00,
2013-01-12 07:33:00,23.0,23.0,30.33,South,186,1.0,1.0,100,-99.99,,,-99.99,,2013-01-12 15:33:00,
2013-01-12 07:42:00,23.0,23.0,30.33,South,186,1.0,1.0,100,-99.99,,,-99.99,,2013-01-12 15:42:00,
2013-01-12 07:52:00,22.0,22.0,30.33,SSE,157,1.0,1.0,100,-99.99,,,-99.99,,2013-01-12 15:52:00,
2013-01-12 08:02:00,22.0,22.0,30.33,ESE,118,1.0,1.0,100,-99.99,,,-99.99,,2013-01-12 16:02:00,
2013-01-12 08:12:00,22.0,22.0,30.33,SE,145,1.0,1.0,100,-99.99,,,-99.99,,2013-01-12 16:12:00,
2013-01-12 08:22:00,22.0,22.0,30.33,South,175,1.0,1.0,100,-99.99,,,-99.99,,2013-01-12 16:22:00,
2013-01-12 08:32:00,22.0,22.0,30.33,South,186,0.0,0.0,100,-99.99,,,-99.99,,2013-01-12 16:32:00,
2013-01-12 08:42:00,22.0,22.0,30.33,South,182,1.0,1.0,100,-99.99,,,-99.99,,2013-01-12 16:42:00,
2013-01-12 08:52:00,22.0,22.0,30.34,SE,145,1.0,1.0,100,-99.99,,,-99.99,,2013-01-12 16:52:00,
2013-01-12 09:02:00,22.0,22.0,30.34,SSE,159,0.0,1.0,100,-99.99,,,-99.99,,2013-01-12 17:02:00,
2013-01-12 09:12:00,23.0,23.0,30.34,SE,126,2.0,2.0,100,-99.99,,,-99.99,,2013-01-12 17:12:00,
2013-01-12 09:22:00,23.0,23.0,30.34,SE,139,2.0,3.0,100,-99.99,,,-99.99,,2013-01-12 17:22:00,
2013-01-12 09:32:00,23.0,23.0,30.34,SSW,200,1.0,1.0,100,-99.99,,,-99.99,,2013-01-12 17:32:00,
2013-01-12 09:42:00,23.0,23.0,30.34,SSW,200,1.0,1.0,100,-99.99,,,-99.99,,2013-01-12 17:42:00,
2013-01-12 09:53:00,23.0,23.0,30.34,SE,142,1.0,1.0,100,-99.99,,,-99.99,,2013-01-12 17:53:00,
2013-01-12 10:02:00,23.0,23.0,30.34,SE,142,1.0,1.0,100,-99.99,,,-99.99,,2013-01-12 18:02:00,
2013-01-12 10:12:00,24.0,24.0,30.35,WSW,255,1.0,1.0,99,-99.99,,,-99.99,,2013-01-12 18:12:00,
2013-01-12 10:22:00,25.0,24.0,30.35,West,262,1.0,1.0,96,-99.99,,,-99.99,,2013-01-12 18:22:00,
2013-01-12 10:33:00,25.0,24.0,30.35,West,281,1.0,2.0,92,-99.99,,,-99.99,,2013-01-12 18:33:00,
2013-01-12 10:42:00,26.0,24.0,30.36,NW,318,2.0,2.0,92,-99.99,,,-99.99,,2013-01-12 18:42:00,
2013-01-12 10:52:00,26.0,21.0,30.36,NNW,345,3.0,4.0,81,-99.99,,,-99.99,,2013-01-12 18:52:00,
2013-01-12 11:03:00,27.0,21.0,30.36,NNW,343,3.0,5.0,77,-99.99,,,-99.99,,2013-01-12 19:03:00,
2013-01-12 11:12:00,27.0,20.0,30.36,NNW,341,3.0,4.0,74,-99.99,,,-99.99,,2013-01-12 19:12:00,
2013-01-12 11:22:00,27.0,21.0,30.36,WNW,292,1.0,2.0,76,-99.99,,,-99.99,,2013-01-12 19:22:00,
2013-01-12 11:32:00,28.0,21.0,30.36,WSW,240,1.0,2.0,75,-99.99,,,-99.99,,2013-01-12 19:32:00,
2013-01-12 11:42:00,28.0,21.0,30.36,WNW,284,2.0,3.0,74,-99.99,,,-99.99,,2013-01-12 19:42:00,
2013-01-12 11:52:00,28.0,21.0,30.36,WNW,283,1.0,2.0,73,-99.99,,,-99.99,,2013-01-12 19:52:00,
2013-01-12 12:02:00,29.0,21.0,30.36,West,264,1.0,2.0,73,-99.99,,,-99.99,,2013-01-12 20:02:00,
2013-01-12 12:12:00,29.0,22.0,30.36,WSW,246,1.0,2.0,72,-99.99,,,-99.99,,2013-01-12 20:12:00,
2013-01-12 12:22:00,30.0,22.0,30.35,WNW,287,0.0,3.0,72,-99.99,,,-99.99,,2013-01-12 20:22:00,
2013-01-12 12:32:00,31.0,22.0,30.35,WSW,238,1.0,3.0,71,-99.99,,,-99.99,,2013-01-12 20:32:00,
2013-01-12 12:42:00,32.0,23.0,30.35,SW,235,1.0,3.0,68,-99.99,,,-99.99,,2013-01-12 20:42:00,
2013-01-12 12:53:00,34.0,22.0,30.35,SE,125,2.0,4.0,60,-99.99,,,-99.99,,2013-01-12 20:53:00,
2013-01-12 13:02:00,35.0,22.0,30.34,SE,138,2.0,5.0,59,-99.99,,,-99.99,,2013-01-12 21:02:00,
2013-01-12 13:12:00,35.0,22.0,30.34,South,177,2.0,3.0,58,-99.99,,,-99.99,,2013-01-12 21:12:00,
2013-01-12 13:22:00,35.0,23.0,30.34,SE,145,1.0,4.0,59,-99.99,,,-99.99,,2013-01-12 21:22:00,
2013-01-12 13:32:00,36.0,24.0,30.33,ESE,122,1.0,3.0,60,-99.99,,,-99.99,,2013-01-12 21:32:00,
2013-01-12 13:42:00,37.0,24.0,30.33,East,87,3.0,6.0,57,-99.99,,,-99.99,,2013-01-12 21:42:00,
2013-01-12 13:52:00,39.0,24.0,30.33,SSW,200,1.0,3.0,55,-99.99,,,-99.99,,2013-01-12 21:52:00,
2013-01-12 14:02:00,40.0,25.0,30.33,East,93,3.0,4.0,54,-99.99,,,-99.99,,2013-01-12 22:02:00,
2013-01-12 14:12:00,41.0,24.0,30.33,ENE,71,1.0,2.0,51,-99.99,,,-99.99,,2013-01-12 22:12:00,
2013-01-12 14:22:00,42.0,23.0,30.33,ENE,75,1.0,1.0,48,-99.99,,,-99.99,,2013-01-12 22:22:00,
2013-01-12 14:32:00,42.0,23.0,30.33,WSW,239,1.0,3.0,46,-99.99,,,-99.99,,2013-01-12 22:32:00,
2013-01-12 14:43:00,41.0,23.0,30.33,SW,231,0.0,2.0,49,-99.99,,,-99.99,,2013-01-12 22:43:00,
2013-01-12 14:52:00,42.0,23.0,30.33,ESE,119,1.0,2.0,47,-99.99,,,-99.99,,2013-01-12 22:52:00,
2013-01-12 15:02:00,41.0,23.0,30.33,South,173,1.0,3.0,48,-99.99,,,-99.99,,2013-01-12 23:02:00,
2013-01-12 15:12:00,40.0,23.0,30.34,West,276,1.0,3.0,51,-99.99,,,-99.99,,2013-01-12 23:12:00,
2013-01-12 15:22:00,40.0,23.0,30.34,West,276,1.0,3.0,51,-99.99,,,-99.99,,2013-01-12 23:22:00,
2013-01-12 15:32:00,42.0,21.0,30.33,East,85,1.0,3.0,42,-99.99,,,-99.99,,2013-01-12 23:32:00,
2013-01-12 15:42:00,42.0,21.0,30.33,East,85,1.0,3.0,42,-99.99,,,-99.99,,2013-01-12 23:42:00,
2013-01-12 15:52:00,39.0,22.0,30.33,SW,217,1.0,2.0,48,-99.99,,,-99.99,,2013-01-12 23:52:00,
2013-01-12 16:02:00,39.0,21.0,30.34,SE,130,1.0,2.0,47,-99.99,,,-99.99,,2013-01-13 00:02:00,
2013-01-12 16:12:00,41.0,22.0,30.34,ESE,115,1.0,1.0,46,-99.99,,,-99.99,,2013-01-13 00:12:00,
2013-01-12 16:22:00,39.0,21.0,30.34,West,272,1.0,2.0,48,-99.99,,,-99.99,,2013-01-13 00:22:00,
2013-01-12 16:32:00,40.0,23.0,30.34,North,356,1.0,1.0,50,-99.99,,,-99.99,,2013-01-13 00:32:00,
2013-01-12 16:42:00,39.0,22.0,30.34,NE,40,2.0,3.0,51,-99.99,,,-99.99,,2013-01-13 00:42:00,
2013-01-12 16:52:00,37.0,23.0,30.35,NNE,15,1.0,2.0,55,-99.99,,,-99.99,,2013-01-13 00:52:00,
2013-01-12 17:02:00,37.0,23.0,30.35,NNE,15,1.0,2.0,55,-99.99,,,-99.99,,2013-01-13 01:02:00,
2013-01-12 17:12:00,34.0,24.0,30.35,NE,38,2.0,2.0,66,-99.99,,,-99.99,,2013-01-13 01:12:00,
2013-01-12 17:22:00,33.0,24.0,30.35,North,351,1.0,1.0,69,-99.99,,,-99.99,,2013-01-13 01:22:00,
2013-01-12 17:32:00,32.0,24.0,30.35,NNE,20,1.0,2.0,71,-99.99,,,-99.99,,2013-01-13 01:32:00,
2013-01-12 17:42:00,31.0,23.0,30.35,North,4,1.0,2.0,72,-99.99,,,-99.99,,2013-01-13 01:42:00,
2013-01-12 17:52:00,30.0,24.0,30.35,South,181,2.0,3.0,79,-99.99,,,-99.99,,2013-01-13 01:52:00,
2013-01-12 18:02:00,30.0,24.0,30.35,South,181,2.0,3.0,79,-99.99,,,-99.99,,2013-01-13 02:02:00,
2013-01-12 18:12:00,29.0,23.0,30.36,SW,233,1.0,1.0,79,-99.99,,,-99.99,,2013-01-13 02:12:00,
2013-01-12 18:22:00,28.0,24.0,30.36,WSW,253,2.0,2.0,82,-99.99,,,-99.99,,2013-01-13 02:22:00,
2013-01-12 18:32:00,28.0,25.0,30.36,WSW,246,1.0,1.0,86,-99.99,,,-99.99,,2013-01-13 02:32:00,
2013-01-12 18:42:00,27.0,24.0,30.36,NW,307,1.0,1.0,84,-99.99,,,-99.99,,2013-01-13 02:42:00,
2013-01-12 18:52:00,27.0,24.0,30.37,WNW,283,1.0,1.0,86,-99.99,,,-99.99,,2013-01-13 02:52:00,
2013-01-12 19:02:00,27.0,24.0,30.37,SE,131,1.0,2.0,89,-99.99,,,-99.99,,2013-01-13 03:02:00,
2013-01-12 19:12:00,26.0,24.0,30.37,SE,140,1.0,1.0,91,-99.99,,,-99.99,,2013-01-13 03:12:00,
2013-01-12 19:22:00,26.0,24.0,30.37,SE,143,1.0,1.0,93,-99.99,,,-99.99,,2013-01-13 03:22:00,
2013-01-12 19:32:00,25.0,24.0,30.38,SSW,197,1.0,1.0,95,-99.99,,,-99.99,,2013-01-13 03:32:00,
2013-01-12 19:42:00,25.0,24.0,30.38,SSW,197,1.0,1.0,95,-99.99,,,-99.99,,2013-01-13 03:42:00,
2013-01-12 19:52:00,25.0,24.0,30.38,South,171,2.0,3.0,98,-99.99,,,-99.99,,2013-01-13 03:52:00,
2013-01-12 20:02:00,25.0,24.0,30.38,South,171,2.0,3.0,98,-99.99,,,-99.99,,2013-01-13 04:02:00,
2013-01-12 20:12:00,24.0,24.0,30.38,South,181,1.0,1.0,97,-99.99,,,-99.99,,2013-01-13 04:12:00,
2013-01-12 20:22:00,24.0,24.0,30.38,SSE,165,1.0,1.0,97,-99.99,,,-99.99,,2013-01-13 04:22:00,
2013-01-12 20:32:00,24.0,24.0,30.39,NNE,26,0.0,1.0,98,-99.99,,,-99.99,,2013-01-13 04:32:00,
2013-01-12 20:42:00,24.0,24.0,30.39,NE,55,1.0,1.0,100,-99.99,,,-99.99,,2013-01-13 04:42:00,
2013-01-12 20:52:00,24.0,24.0,30.40,ESE,103,1.0,2.0,100,-99.99,,,-99.99,,2013-01-13 04:52:00,
2013-01-12 21:03:00,24.0,24.0,30.40,South,170,2.0,3.0,100,-99.99,,,-99.99,,2013-01-13 05:03:00,
2013-01-12 21:12:00,23.0,23.0,30.39,SSE,159,1.0,3.0,100,-99.99,,,-99.99,,2013-01-13 05:12:00,
2013-01-12 21:22:00,23.0,23.0,30.39,NW,323,1.0,1.0,99,-99.99,,,-99.99,,2013-01-13 05:22:00,
2013-01-12 21:32:00,23.0,23.0,30.40,NW,318,1.0,1.0,100,-99.99,,,-99.99,,2013-01-13 05:32:00,
2013-01-12 21:42:00,23.0,23.0,30.40,NW,318,1.0,1.0,100,-99.99,,,-99.99,,2013-01-13 05:42:00,
2013-01-12 21:52:00,23.0,23.0,30.40,West,264,0.0,1.0,100,-99.99,,,-99.99,,2013-01-13 05:52:00,
2013-01-12 22:02:00,22.0,22.0,30.40,South,182,0.0,0.0,100,-99.99,,,-99.99,,2013-01-13 06:02:00,
2013-01-12 22:12:00,23.0,23.0,30.40,South,170,1.0,1.0,100,-99.99,,,-99.99,,2013-01-13 06:12:00,
2013-01-12 22:22:00,22.0,22.0,30.40,SSE,159,0.0,1.0,100,-99.99,,,-99.99,,2013-01-13 06:22:00,
2013-01-12 22:32:00,22.0,22.0,30.40,SSE,152,1.0,1.0,100,-99.99,,,-99.99,,2013-01-13 06:32:00,
2013-01-12 22:42:00,22.0,22.0,30.41,SSE,151,2.0,3.0,100,-99.99,,,-99.99,,2013-01-13 06:42:00,
2013-01-12 22:52:00,22.0,22.0,30.41,SE,129,0.0,1.0,100,-99.99,,,-99.99,,2013-01-13 06:52:00,
2013-01-12 23:02:00,22.0,22.0,30.41,South,171,1.0,2.0,100,-99.99,,,-99.99,,2013-01-13 07:02:00,
2013-01-12 23:12:00,22.0,22.0,30.41,South,172,2.0,2.0,100,-99.99,,,-99.99,,2013-01-13 07:12:00,
2013-01-12 23:22:00,22.0,22.0,30.41,SSE,153,2.0,3.0,100,-99.99,,,-99.99,,2013-01-13 07:22:00,
2013-01-12 23:32:00,22.0,22.0,30.41,South,181,3.0,5.0,100,-99.99,,,-99.99,,2013-01-13 07:32:00,
2013-01-12 23:42:00,22.0,22.0,30.41,South,181,3.0,5.0,100,-99.99,,,-99.99,,2013-01-13 07:42:00,
2013-01-12 23:52:00,22.0,22.0,30.41,South,178,2.0,2.0,98,-99.99,,,-99.99,,2013-01-13 07:52:00,